Location: Mahannah Oil Field
(37.4664°N, 96.6003°W)
Time: 10:08:00
(UTC+00:00)

Vanguard 1 - Visible Passes

Search period start: 24 January 2021 00:00
Search period end: 03 February 2021 00:00
Orbit: 648 x 3834 km, 34.3° (Epoch: 23 January)

Date Brightness Start Highest point End Pass type
(mag) Time Alt. Az. Time Alt. Az. Time Alt. Az.
24 Jan 13.1 01:38:50 10° WNW 01:59:40 47° SW 02:13:30 10° SSE visible
24 Jan 13.6 04:13:03 10° W 04:20:02 13° WSW 04:25:51 10° SSW visible
24 Jan 13.2 23:32:39 10° W 23:56:12 72° SSW 00:14:20 10° ESE visible
25 Jan 13.3 02:00:51 10° WNW 02:20:11 39° SW 02:33:23 10° SSE visible
25 Jan 13.2 23:54:12 10° W 00:17:26 65° SSW 00:35:02 10° SE visible
26 Jan 13.4 02:23:14 10° W 02:40:32 31° SW 02:52:50 10° S visible
27 Jan 13.4 00:15:49 10° WNW 00:38:29 57° SSW 00:55:31 10° SE visible
27 Jan 13.6 02:46:14 10° W 03:00:43 23° SW 03:11:39 10° S visible
28 Jan 13.5 00:37:32 10° WNW 00:59:19 49° SW 01:15:44 10° SSE visible
28 Jan 13.8 03:10:31 10° W 03:20:49 16° WSW 03:29:16 10° SSW visible
29 Jan 13.6 00:59:28 10° WNW 01:19:58 41° SW 01:35:38 10° SSE visible
30 Jan 13.7 01:21:43 10° W 01:40:27 33° SW 01:55:05 10° S visible
31 Jan 13.9 01:44:34 10° W 02:00:48 25° SW 02:13:57 10° S visible
31 Jan 13.9 23:37:00 10° WNW 23:58:26 50° SW 00:17:17 10° SSE visible
01 Feb 14.1 02:08:32 10° W 02:21:03 18° SW 02:31:44 10° SSW visible
01 Feb 13.9 23:58:48 10° W 00:19:13 42° SW 00:37:11 10° SSE visible
02 Feb 14.3 02:35:47 10° WSW 02:41:17 11° WSW 02:46:25 10° SW visible
